DMSP 5D-2 F13 DEB

Satellite information

Favourite Embed

Satellite Type and Status

DEBRISIN ORBIT

Key statistics

Satellite DMSP 5D-2 F13 DEB at a glance.

Uptime

11222

Days in orbit

Revolutions

≈ 14.2

Per day

Orbit

SSO

Sun Synchronous Orbit

Inclination

98.9

Latest

Satellite identification and parameters

Extended collection of information and parameters for DMSP 5D-2 F13 DEB.

Object identification

Identified? True

Debris? True

Object name: DMSP 5D-2 F13 DEB

International designator: 1995-015HC

Object number (NORAD): 42286

Object ID (CCSDS): 42286

Country: UNITED STATES OF AMERICA (US)

Current information (Y/N): Y

RCS size: SMALL

Orbital parameters

Period: 101.167 minutes

Inclination: 98.9225 deg

SMA: 7192.056 km

Apoapsis: 851.953 km

Periapsis: 775.889 km

RAAN: 310.8636 deg

Eccentricy: 0.00528807

Argument of periapsis: 271.4612 deg

Mean anomaly: 88.0508 deg

Mean motion: 14.23387605 rev/day

Mean motion (dot): 0.0000893 rev/day2

B* drag term: 0.0038950243 1/REarth

Two-line elements (TLE)

Creation date: Dec. 7, 2025, 5:42 a.m.

Reference frame: TEME

Reference center: EARTH

Epoch: Dec. 6, 2025, 3:35 p.m. UTC

TLE line 0: 0 DMSP 5D-2 F13 DEB

TLE line 1: 1 42286U 95015HC 25340.64991178 .00008930 00000-0 38950-2 0 9998

TLE line 2: 2 42286 98.9225 310.8636 0052881 271.4612 88.0508 14.23387605543373

Live tracking on map

Real-time ground track for satellite DMSP 5D-2 F13 DEB.

In-orbit conjunctions

A list of the most updated potential collisions computed for object DMSP 5D-2 F13 DEB.

Target Orbit TCA Probability of collision Miss distance Type
FENGYUN 1C DEB SSO 2025-06-28 10:14:08 0.0001528974 116.0 (m) DEBRIS
SL-3 R/B LEO 2025-04-02 16:31:14 0.0001028475 272.0 (m) ROCKET BODY
IRS 1D SSO 2025-02-13 13:29:45 0.0001200742 785.0 (m) PAYLOAD
METEOR 2-5 LEO 2024-11-01 17:36:08 0.0002814247 206.0 (m) PAYLOAD
EXPLORER 30 LEO 2024-08-16 00:20:33 0.0001235402 315.0 (m) PAYLOAD

Associated space launch

Military meteorological satellite

DMSP 5D-2 F13 DEB was lifted into orbit during the mission ‘Atlas E | DMSP-5D2 F13’, on board a Atlas E space rocket.

The launch took place on March 24, 1995, 2:05 p.m. from Space Launch Complex 3W.

For more information about the launch, click the button.

Launch to space Atlas E | DMSP-5D2 F13
Atlas E | DMSP-5D2 F13

Agency: N/A

Status: Launch Successful

Launch date: March 24, 1995, 2:05 p.m. UTC

Rocket: Atlas E

Launch pad: Space Launch Complex 3W

Location: Vandenberg SFB, CA, USA

...

Latest news about this satellite

There are no fresh news available about this satellite. Check back as we update our databases every day.


Newsletter sign-up

Weekly statistics, charts and insights to help you stay on top of the space industry.